COSMOS 2251 DEB, 35890

Orbit data source: Space-Track

COSMOS 2251 DEB, 35890 is space debris in LEO originally from a launch on Wed, 16 Jun 1993 UTC launched from the Plesetsk Missile And Space Complex (PKMTR). The debris from Iridium 33, an American commercial communications satellite, has been tracked extensively since its accidental collision with the defunct Russian satellite Cosmos 2251 in 2009. This event, occurring at high speed in low Earth orbit (LEO), generated thousands of pieces of space debris, significantly increasing the risk of further collisions. The Iridium 33 debris cloud has impacted space traffic management and orbital debris mitigation strategies, making it a subject of ongoing study in space situational awareness.

Loading next visibility...
Identifier
35890, 1993-036AUD
Orbit
LEO
Country
Flag of CISCIS
Related business
Manufacturer
Unknown
Mission
Spacecraft
Bus & Motor
Unknown
Mass
Unknown
Launch date (UTC)
1993-06-16 (33 years ago)
Launch vehicle
Unknown
Launch site
Plesetsk Missile And Space Complex (PKMTR)
Object type
Payload
Rocket body
Debris
Shape & HBR
Unknown shape, 0.1 m
Radar Cross Section
Small (<0.1 m²)

Expand to show TLE details & history
Last TLE update: 10 hours ago

TLE from 10 hours ago
0 COSMOS 2251 DEB
1 35890U 93036AUD 26145.11322137  .00005072  00000-0  10419-2 0  9995
2 35890  73.9345 289.5994 0054751  21.0617 339.2784 14.59944677675339
Epoch: 2026-05-25T02:43Z
TLE epoch observation values (Epoch: 2026-05-25T02:43:02.326Z)
Latitude
-0.00007°
Longitude
6.13401°
Altitude
659.795 km
Speed
7.547 km/s
True Right ascension
19h 18m 23s
True Declination
0° 00' 00"
Sunlit
Object was in full shadow at epoch
Visualization orbit readout
Latitude
Unknown
Longitude
Unknown
Altitude
Unknown
Speed
Unknown
Apparent Right ascension
Unknown
Apparent Declination
Unknown
Sunlit
N/A
Visualization observer readout
Local Sidereal Time
21:44:02
Azimuth
Unknown
Elevation
Unknown
Doppler factor
Unknown
Orbital elements
Apogee altitude
729.663 km
Perigee altitude
652.255 km
Semi-major axis
7,069.096 km
Eccentricity
0.00548
Inclination
73.9345°
RAAN
289.5994°
Arg. of periapsis
21.0617°
True anomaly
339.05498°
Mean anomaly
339.2784°
Eccentric anomaly
339.16683°
Mean motion
3.65172 °/min
Orbital period
98.58 mins
BSTAR
0.0010419
Loading maneuver chart data...
Computing Atmospheric mass density...

Documentation

Showing up to 5 results
|